Tracking 25648 objects as of 16-May-2022
HD Live streaming from Space Station
objects crossing your sky now

COSMOS 2251 DEB

Track COSMOS 2251 DEB now!
10-day predictions


NORAD ID: 33759
Int'l Code: 1993-036G
Perigee: 704.4 km
Apogee: 741.3 km
Inclination: 74.0 °
Period: 99.1 minutes
Semi major axis: 7093 km
RCS: 0.079 m2 (small)
Launch date: June 16, 1993
Source: Commonwealth of Independent States (former USSR) (CIS)
Launch site: PLESETSK MISSILE AND SPACE COMPLEX (PKMTR)

Note: This is SATELLITE DEBRIS
aabbcc
Your satellite tracking list
Your tracking list is empty




NASA's NSSDC Master Catalog

Two Line Element Set (TLE):
1 33759U 93036G   22135.93871844  .00008301  00000-0  20047-2 0  9992
2 33759  74.0212  14.8218 0026062  90.1619 282.5944 14.53051077698359
Source of the keplerian elements: AFSPC